Location: Asheville, NC
(35.6000°N, 82.5500°W)
Time: 00:42:22
(UTC-04:00)

ISS - Pass Details

Date: 19 May 2019
Orbit: 407 x 410 km, 51.6° (Epoch: 23 May)

Event Time Altitude Azimuth Distance (km) Brightness Sun altitude
Rises 22:09:31 0° 254° (WSW) 2,317 0.5 -17.5°
Reaches altitude 10° 22:11:49 10° 267° (W) 1,461 -0.4 -17.8°
Maximum altitude 22:14:37 26° 326° (NNW) 851 -1.4 -18.3°
Drops below altitude 10° 22:17:26 10° 25° (NNE) 1,467 -0.8 -18.7°
Sets 22:19:45 0° 39° (NE) 2,331 0.1 -19.0°
